Location: Newark
(60.0000°N, 100.0000°E)
Time: 11:04:22
(UTC+00:00)

N. Korean satellite - Pass Details

Date: 25 November 2019
Orbit: 455 x 507 km, 97.2° (Epoch: 15 December)

Event Time Altitude Azimuth Distance (km) Brightness Sun altitude
Rises 09:31:32 0° 149° (SSE) 2,596 10.3 -6.7°
Reaches altitude 10° 09:33:38 10° 145° (SE) 1,719 9.3 -7.0°
Maximum altitude 09:37:15 54° 68° (ENE) 629 6.8 -7.4°
Drops below altitude 10° 09:40:55 10° 351° (N) 1,737 9.2 -7.8°
Sets 09:43:02 0° 347° (NNW) 2,626 10.1 -8.0°
